CW9417 Weather Reports


Display with metric or nautical units.
time (UTC)temp
F
wind
direction
speed
MPH
gust
MPH
rain 1hr
in
rain 24hr
in
rain mn
in
humidity
%
barometer
mb
20260507180113 62 56 1.0 4.0 0.00 0.00 0.00 56 1017.0
20260507175610 62 145 1.0 4.0 0.00 0.00 0.00 57 1017.0
20260507175112 61 116 2.0 6.0 0.00 0.00 0.00 57 1017.0
20260507174610 61 151 2.0 8.0 0.00 0.00 0.00 57 1017.0
20260507174110 62 149 1.0 8.0 0.00 0.00 0.00 56 1017.0
20260507173605 62 75 2.0 5.0 0.00 0.00 0.00 55 1016.9
20260507173057 62 254 2.0 5.0 0.00 0.00 0.00 55 1017.0
20260507172554 62 247 1.0 4.0 0.00 0.00 0.00 56 1017.0
20260507172046 62 148 2.0 6.0 0.00 0.00 0.00 55 1016.9
20260507171547 62 82 2.0 7.0 0.00 0.00 0.00 55 1016.8
20260507171058 61 42 2.0 7.0 0.00 0.00 0.00 55 1016.9
20260507170546 61 49 2.0 7.0 0.00 0.00 0.00 55 1016.8
20260507170100 61 77 2.0 7.0 0.00 0.00 0.00 55 1016.9
20260507165544 61 49 2.0 8.0 0.00 0.00 0.00 55 1016.9
20260507165044 62 34 2.0 8.0 0.00 0.00 0.00 54 1016.8
20260507164805 62 31 2.0 7.0 0.00 0.00 0.00 54 1016.8
20260507164044 62 115 2.0 6.0 0.00 0.00 0.00 54 1016.8
20260507163549 62 71 2.0 8.0 0.00 0.00 0.00 55 1016.8
20260507163042 62 105 1.0 8.0 0.00 0.00 0.00 55 1016.8
20260507162541 62 124 1.0 9.0 0.00 0.00 0.00 54 1016.8
20260507162308 62 44 2.0 9.0 0.00 0.00 0.00 54 1016.8
20260507161542 62 4 3.0 9.0 0.00 0.00 0.00 54 1016.8
20260507161045 62 68 2.0 9.0 0.00 0.00 0.00 54 1016.7
20260507160539 62 51 1.0 5.0 0.00 0.00 0.00 54 1016.7
20260507160314 63 201 1.0 5.0 0.00 0.00 0.00 54 1016.7
20260507155535 62 15 2.0 7.0 0.00 0.00 0.00 54 1016.7
20260507155033 62 95 3.0 11.0 0.00 0.00 0.00 52 1016.7
20260507154533 62 33 3.0 12.0 0.00 0.00 0.00 53 1016.7
20260507154035 62 36 3.0 12.0 0.00 0.00 0.00 53 1016.7
20260507153757 62 27 3.0 9.0 0.00 0.00 0.00 53 1016.6
20260507153036 63 78 3.0 9.0 0.00 0.00 0.00 52 1016.6
20260507152536 63 110 3.0 8.0 0.00 0.00 0.00 52 1016.6
20260507152037 63 77 2.0 7.0 0.00 0.00 0.00 51 1016.6
20260507151538 64 123 1.0 5.0 0.00 0.00 0.00 49 1016.7
20260507151531 64 87 1.0 6.0 0.00 0.00 0.00 50 1016.6
20260507150755 64 68 2.0 6.0 0.00 0.00 0.00 51 1016.5
20260507150048 63 42 2.0 6.0 0.00 0.00 0.00 49 1016.5
20260507150029 63 266 2.0 6.0 0.00 0.00 0.00 49 1016.5
20260507145035 64 35 2.0 6.0 0.00 0.00 0.00 49 1016.5
20260507144534 64 231 3.0 7.0 0.00 0.00 0.00 48 1016.5
20260507144040 63 115 2.0 7.0 0.00 0.00 0.00 44 1016.5
20260507143533 64 95 1.0 5.0 0.00 0.00 0.00 41 1016.6
20260507143034 63 46 2.0 6.0 0.00 0.00 0.00 46 1016.5
20260507142533 64 248 2.0 7.0 0.00 0.00 0.00 47 1016.6
20260507142311 64 25 2.0 7.0 0.00 0.00 0.00 45 1016.6
20260507141535 64 127 2.0 7.0 0.00 0.00 0.00 45 1016.6
20260507141257 63 66 1.0 5.0 0.00 0.00 0.00 46 1016.7
20260507140544 63 80 2.0 7.0 0.00 0.00 0.00 47 1016.8
20260507140533 63 240 1.0 7.0 0.00 0.00 0.00 45 1016.8
20260507135534 63 18 2.0 8.0 0.00 0.00 0.00 49 1016.8
20260507135036 63 71 2.0 8.0 0.00 0.00 0.00 50 1016.8
20260507134530 63 105 1.0 5.0 0.00 0.00 0.00 50 1016.8
20260507134029 62 233 2.0 8.0 0.00 0.00 0.00 50 1016.8
20260507133531 62 99 3.0 8.0 0.00 0.00 0.00 47 1016.8
20260507133024 62 130 3.0 7.0 0.00 0.00 0.00 47 1016.8
20260507132518 63 105 2.0 7.0 0.00 0.00 0.00 47 1016.8
20260507132018 64 68 1.0 4.0 0.00 0.00 0.00 48 1016.8
20260507131520 63 96 2.0 5.0 0.00 0.00 0.00 45 1016.7
20260507131016 63 128 2.0 5.0 0.00 0.00 0.00 47 1016.7
20260507130530 64 89 1.0 6.0 0.00 0.00 0.00 47 1016.7
20260507130019 63 96 2.0 6.0 0.00 0.00 0.00 47 1016.7
20260507125515 63 44 2.0 6.0 0.00 0.00 0.00 49 1016.8
20260507125016 63 120 2.0 6.0 0.00 0.00 0.00 50 1016.8
20260507124515 64 109 1.0 4.0 0.00 0.00 0.00 45 1016.9
20260507124236 64 119 1.0 4.0 0.00 0.00 0.00 48 1016.8
20260507123517 63 33 1.0 7.0 0.00 0.00 0.00 48 1016.7
20260507123506 63 139 1.0 7.0 0.00 0.00 0.00 45 1016.8
20260507122517 63 93 1.0 4.0 0.00 0.00 0.00 46 1016.7
20260507122018 63 139 2.0 6.0 0.00 0.00 0.00 49 1016.8
20260507121742 62 266 2.0 7.0 0.00 0.00 0.00 46 1016.8
20260507121016 63 108 1.0 7.0 0.00 0.00 0.00 49 1016.8
20260507120516 63 207 1.0 4.0 0.00 0.00 0.00 48 1016.8
20260507120240 63 104 1.0 6.0 0.00 0.00 0.00 52 1016.8
20260507115507 63 132 1.0 6.0 0.00 0.00 0.00 51 1016.8
20260507114959 62 206 2.0 6.0 0.00 0.00 0.00 51 1016.8
20260507114451 62 122 2.0 5.0 0.00 0.00 0.00 51 1016.8
20260507113946 62 90 1.0 5.0 0.00 0.00 0.00 49 1016.8
20260507113440 62 68 2.0 5.0 0.00 0.00 0.00 46 1016.9
20260507112934 62 328 2.0 6.0 0.00 0.00 0.00 49 1016.8
20260507112441 62 75 2.0 6.0 0.00 0.00 0.00 49 1016.8
20260507112141 62 106 2.0 6.0 0.00 0.00 0.00 50 1016.8
20260507111422 61 107 2.0 6.0 0.00 0.00 0.00 53 1016.8
20260507111132 61 58 1.0 7.0 0.00 0.00 0.00 52 1016.9
20260507110404 61 29 2.0 7.0 0.00 0.00 0.00 53 1016.9
20260507105857 61 32 3.0 7.0 0.00 0.00 0.00 53 1016.9
20260507105350 61 106 3.0 9.0 0.00 0.00 0.00 53 1016.9
20260507104848 61 98 2.0 9.0 0.00 0.00 0.00 52 1016.9
20260507104336 61 162 2.0 6.0 0.00 0.00 0.00 52 1016.9
20260507103834 61 57 2.0 6.0 0.00 0.00 0.00 50 1016.9
20260507103326 61 16 2.0 5.0 0.00 0.00 0.00 49 1016.9
20260507103048 60 112 2.0 5.0 0.00 0.00 0.00 50 1016.9
20260507102315 61 56 1.0 6.0 0.00 0.00 0.00 49 1017.0
20260507101301 61 340 2.0 8.0 0.00 0.00 0.00 51 1016.9
20260507100755 61 57 2.0 5.0 0.00 0.00 0.00 52 1016.8
20260507100250 60 15 2.0 7.0 0.00 0.00 0.00 52 1016.8
20260507095744 60 103 1.0 7.0 0.00 0.00 0.00 51 1016.9
20260507095237 60 243 1.0 7.0 0.00 0.00 0.00 51 1016.8
20260507094732 60 58 1.0 7.0 0.00 0.00 0.00 54 1016.8
20260507094442 60 113 1.0 10.0 0.00 0.00 0.00 52 1016.7
20260507093945 60 81 2.0 10.0 0.00 0.00 0.00 51 1016.8
20260507093657 60 98 2.0 9.0 0.00 0.00 0.00 53 1016.7
20260507092707 59 53 2.0 9.0 0.00 0.00 0.00 53 1016.6
20260507092200 59 304 2.0 9.0 0.00 0.00 0.00 54 1016.6
20260507091655 59 26 2.0 6.0 0.00 0.00 0.00 52 1016.6
20260507091149 59 131 1.0 6.0 0.00 0.00 0.00 53 1016.6
20260507090645 60 99 1.0 6.0 0.00 0.00 0.00 54 1016.6
20260507090138 59 115 1.0 6.0 0.00 0.00 0.00 54 1016.6
20260507085631 59 176 1.0 6.0 0.00 0.00 0.00 55 1016.5
20260507085124 58 130 1.0 5.0 0.00 0.00 0.00 54 1016.5
20260507084618 58 141 1.0 6.0 0.00 0.00 0.00 56 1016.5
20260507084112 58 136 2.0 8.0 0.00 0.00 0.00 57 1016.5
20260507083610 58 76 2.0 8.0 0.00 0.00 0.00 56 1016.5
20260507083058 58 105 1.0 4.0 0.00 0.00 0.00 55 1016.5
20260507082554 58 91 0.0 4.0 0.00 0.00 0.00 57 1016.4
20260507082047 58 13 0.0 3.0 0.00 0.00 0.00 58 1016.4
20260507081543 57 57 1.0 3.0 0.00 0.00 0.00 58 1016.3
20260507081035 57 51 1.0 3.0 0.00 0.00 0.00 59 1016.3
20260507080529 57 84 0.0 3.0 0.00 0.00 0.00 58 1016.3
20260507080027 57 24 1.0 4.0 0.00 0.00 0.00 58 1016.3
20260507075523 56 221 1.0 4.0 0.00 0.00 0.00 58 1016.3
20260507075243 56 37 1.0 4.0 0.00 0.00 0.00 58 1016.3
20260507074514 56 127 1.0 4.0 0.00 0.00 0.00 57 1016.2
20260507074501 56 45 1.0 5.0 0.00 0.00 0.00 58 1016.2
20260507073450 56 57 1.0 5.0 0.00 0.00 0.00 58 1016.3
20260507072945 56 124 1.0 3.0 0.00 0.00 0.00 55 1016.2
20260507072707 56 120 0.0 5.0 0.00 0.00 0.00 54 1016.2
20260507071934 56 44 0.0 3.0 0.00 0.00 0.00 52 1016.1
20260507071428 55 119 0.0 3.0 0.00 0.00 0.00 51 1016.1
20260507070921 55 359 0.0 3.0 0.00 0.00 0.00 48 1016.1
20260507070419 55 136 0.0 3.0 0.00 0.00 0.00 45 1016.1
20260507065917 55 127 0.0 2.0 0.00 0.00 0.00 39 1016.1
20260507065414 54 231 0.0 2.0 0.00 0.00 0.00 29 1016.1
20260507064916 54 240 0.0 2.0 0.00 0.00 0.00 27 1016.1
20260507064414 53 117 0.0 2.0 0.00 0.00 0.00 17 1016.1
20260507063914 53 87 0.0 2.0 0.00 0.00 0.00 3 1016.1
20260507063415 52 202 0.0 1.0 0.00 0.00 0.00 1 1016.1
20260507062917 51 96 0.0 1.0 0.00 0.00 0.00 1 1016.1
20260507062415 51 72 0.0 1.0 0.00 0.00 0.00 1 1016.0
20260507061920 51 58 0.0 0.0 0.00 0.00 0.00 1 1015.9
20260507061913 51 56 0.0 0.0 0.00 0.00 0.00 1 1015.9
20260507060915 50 56 0.0 0.0 0.00 0.00 0.00 1 1015.9
20260507060414 49 56 0.0 0.0 0.00 0.00 0.00 1 1015.8
20260507055915 49 56 0.0 0.0 0.00 0.00 0.00 1 1015.8
20260507055417 48 56 0.0 0.0 0.00 0.00 0.00 1 1015.7
20260507054918 47 56 0.0 0.0 0.00 0.00 0.00 1 1015.7
20260507054635 46 56 0.0 0.0 0.00 0.00 0.00 1 1015.8
20260507053911 45 56 0.0 0.0 0.00 0.00 0.00 1 1015.7
20260507053410 45 56 0.0 0.0 0.00 0.00 0.00 1 1015.7
20260507052911 45 56 0.0 0.0 0.00 0.00 0.00 1 1015.7
20260507052410 44 56 0.0 0.0 0.00 0.00 0.00 1 1015.6
20260507052131 44 56 0.0 0.0 0.00 0.00 0.00 1 1015.5
20260507051631 44 56 0.0 0.0 0.00 0.00 0.00 1 1015.5
20260507050906 44 56 0.0 0.0 0.00 0.00 0.00 1 1015.5
20260507050404 44 56 0.0 0.0 0.00 0.00 0.00 1 1015.4
20260507045905 44 56 0.0 0.0 0.00 0.00 0.00 1 1015.4
20260507045404 44 56 0.0 0.0 0.00 0.00 0.00 1 1015.3
20260507044904 43 56 0.0 0.0 0.00 0.00 0.00 1 1015.3
20260507044406 43 56 0.0 0.0 0.00 0.00 0.00 1 1015.2
20260507043906 43 56 0.0 0.0 0.00 0.00 0.00 1 1015.1
20260507043405 43 56 0.0 0.0 0.00 0.00 0.00 1 1015.1
20260507042905 43 56 0.0 0.0 0.00 0.00 0.00 1 1015.1
20260507042404 43 56 0.0 0.0 0.00 0.00 0.00 1 1015.1
20260507041908 43 56 0.0 0.0 0.00 0.00 0.00 1 1015.0
20260507041404 43 56 0.0 0.0 0.00 0.00 0.00 1 1015.0
20260507040906 43 56 0.0 0.0 0.00 0.00 0.00 1 1015.0
20260507040624 43 56 0.0 0.0 0.00 0.00 0.00 1 1015.0
20260507040122 43 56 0.0 0.0 0.00 0.00 0.00 1 1015.0
20260507035628 43 56 0.0 0.0 0.00 0.00 0.00 1 1015.0
20260507034904 43 56 0.0 0.0 0.00 0.00 0.00 1 1015.0
20260507034401 43 56 0.0 0.0 0.00 0.00 0.00 1 1014.9
20260507033900 43 56 0.0 0.0 0.00 0.00 0.00 1 1014.9
20260507033400 43 56 0.0 0.0 0.00 0.00 0.00 1 1014.9
20260507032901 43 56 0.0 0.0 0.00 0.00 0.00 1 1014.8
20260507032402 43 56 0.0 0.0 0.00 0.00 0.00 1 1014.7
20260507031856 43 56 0.0 0.0 0.00 0.00 0.00 1 1014.7
20260507031351 43 56 0.0 0.0 0.00 0.00 0.00 1 1014.8
20260507030844 43 56 0.0 0.0 0.00 0.00 0.00 1 1014.7
20260507030338 43 56 0.0 0.0 0.00 0.00 0.00 1 1014.7
20260507025831 43 56 0.0 0.0 0.00 0.00 0.00 1 1014.7
20260507025550 43 56 0.0 0.0 0.00 0.00 0.00 1 1014.7
20260507024819 43 56 0.0 0.0 0.00 0.00 0.00 1 1014.7
20260507024315 43 56 0.0 0.0 0.00 0.00 0.00 1 1014.7
20260507023810 43 56 0.0 0.0 0.00 0.00 0.00 1 1014.6
20260507023302 44 56 0.0 0.0 0.00 0.00 0.00 1 1014.6
20260507022757 44 56 0.0 0.0 0.00 0.00 0.00 1 1014.6
20260507022251 44 56 0.0 0.0 0.00 0.00 0.00 1 1014.6
20260507021746 44 56 0.0 0.0 0.00 0.00 0.00 1 1014.5
20260507021238 44 56 0.0 0.0 0.00 0.00 0.00 1 1014.4
20260507021000 44 56 0.0 0.0 0.00 0.00 0.00 1 1014.4
20260507020222 44 56 0.0 0.0 0.00 0.00 0.00 1 1014.4
20260507015719 44 56 0.0 0.0 0.00 0.00 0.00 1 1014.4
20260507015429 44 56 0.0 0.0 0.00 0.00 0.00 1 1014.4
20260507014705 44 56 0.0 0.0 0.00 0.00 0.00 1 1014.3
20260507014420 45 56 0.0 0.0 0.00 0.00 0.00 1 1014.2
20260507013655 45 56 0.0 0.0 0.00 0.00 0.00 1 1014.2
20260507013147 45 56 0.0 0.0 0.00 0.00 0.00 1 1014.2
20260507012640 45 56 0.0 1.0 0.00 0.00 0.00 1 1014.2
20260507012136 45 56 0.0 1.0 0.00 0.00 0.00 1 1014.2
20260507011629 45 56 0.0 1.0 0.00 0.00 0.00 1 1014.2
20260507011121 46 56 0.0 1.0 0.00 0.00 0.00 1 1014.2
20260507010616 46 56 0.0 0.0 0.00 0.00 0.00 1 1014.2
20260507010341 46 56 0.0 1.0 0.00 0.00 0.00 1 1014.2
20260507005605 46 56 0.0 1.0 0.00 0.00 0.00 1 1014.2
20260507005058 46 56 0.0 0.0 0.00 0.00 0.00 1 1014.2
20260507004554 47 56 0.0 0.0 0.00 0.00 0.00 1 1014.1
20260507004046 47 56 0.0 0.0 0.00 0.00 0.00 1 1014.1
20260507003541 47 56 0.0 0.0 0.00 0.00 0.00 1 1014.1
20260507003034 47 56 0.0 1.0 0.00 0.00 0.00 1 1014.1
20260507002528 47 56 0.0 4.0 0.00 0.00 0.00 1 1014.1
20260507002023 47 53 0.0 4.0 0.00 0.00 0.00 1 1014.1
20260507001519 47 85 0.0 0.0 0.00 0.00 0.00 1 1014.0
20260507001012 48 28 0.0 2.0 0.00 0.00 0.00 3 1014.0
20260507000501 48 30 0.0 2.0 0.00 0.00 0.00 7 1014.0
20260507000445 48 56 0.0 4.0 0.00 0.00 0.00 9 1014.1
20260506235716 48 133 0.0 4.0 0.00 0.00 0.00 12 1014.1
20260506234943 48 65 1.0 5.0 0.00 0.00 0.00 13 1014.1
20260506234435 48 61 2.0 9.0 0.00 0.00 0.00 13 1014.1
20260506233934 48 80 2.0 9.0 0.00 0.00 0.00 14 1014.1
20260506233424 48 73 2.0 7.0 0.00 0.00 0.00 13 1014.1
20260506232918 48 107 2.0 5.0 0.00 0.00 0.00 13 1014.1
20260506232630 48 138 1.0 7.0 0.00 0.00 0.00 13 1014.1
20260506231907 48 42 1.0 7.0 0.00 0.00 0.00 13 1014.0
20260506231401 48 252 1.0 9.0 0.00 0.00 0.00 13 1014.0
20260506230855 48 38 1.0 9.0 0.00 0.00 0.00 12 1014.1
20260506230353 48 108 2.0 10.0 0.00 0.00 0.00 10 1014.0
20260506230108 48 48 1.0 10.0 0.00 0.00 0.00 9 1014.0
20260506225337 48 90 1.0 7.0 0.00 0.00 0.00 7 1014.0
20260506224832 49 90 1.0 6.0 0.00 0.00 0.00 3 1014.0
20260506224324 49 82 1.0 7.0 0.00 0.00 0.00 3 1014.0
20260506223817 49 8 1.0 7.0 0.00 0.00 0.00 4 1013.9
20260506223312 49 127 2.0 6.0 0.00 0.00 0.00 4 1013.9
20260506223033 49 81 2.0 6.0 0.00 0.00 0.00 5 1013.8
20260506222301 49 96 2.0 6.0 0.00 0.00 0.00 3 1013.8
20260506221757 49 30 1.0 5.0 0.00 0.00 0.00 2 1013.9
20260506221250 49 115 1.0 6.0 0.00 0.00 0.00 1 1013.8
20260506220743 49 118 1.0 6.0 0.00 0.00 0.00 2 1013.8
20260506220236 49 72 1.0 5.0 0.00 0.00 0.00 2 1013.8
20260506215730 50 140 1.0 4.0 0.00 0.00 0.00 5 1013.7
20260506215224 50 96 1.0 5.0 0.00 0.00 0.00 9 1013.7
20260506214941 50 93 1.0 5.0 0.00 0.00 0.00 11 1013.6
20260506214211 50 64 2.0 7.0 0.00 0.00 0.00 14 1013.7
20260506213708 50 34 1.0 7.0 0.00 0.00 0.00 17 1013.6
20260506213427 51 156 1.0 6.0 0.00 0.00 0.00 18 1013.5
20260506212917 51 37 2.0 5.0 0.00 0.00 0.00 20 1013.5
20260506212148 51 45 1.0 6.0 0.00 0.00 0.00 21 1013.5
20260506211640 51 57 1.0 8.0 0.00 0.00 0.00 26 1013.5
20260506211134 52 25 1.0 8.0 0.00 0.00 0.00 31 1013.4
20260506210849 52 106 1.0 8.0 0.00 0.00 0.00 33 1013.3
20260506210352 52 41 1.0 8.0 0.00 0.00 0.00 36 1013.3
20260506205617 52 257 1.0 7.0 0.00 0.00 0.00 39 1013.2
20260506205121 52 271 2.0 9.0 0.00 0.00 0.00 42 1013.2
20260506204834 53 22 1.0 9.0 0.00 0.00 0.00 46 1013.2
20260506204059 53 70 1.0 5.0 0.00 0.00 0.00 48 1013.2
20260506203552 53 265 0.0 4.0 0.00 0.00 0.00 51 1013.2
20260506203049 53 238 0.0 4.0 0.00 0.00 0.00 55 1013.1
20260506202542 53 19 1.0 5.0 0.00 0.00 0.00 56 1013.1
20260506202037 53 223 1.0 5.0 0.00 0.00 0.00 57 1013.1
20260506201805 53 27 1.0 7.0 0.00 0.00 0.00 57 1013.0
20260506201023 53 104 1.0 7.0 0.00 0.00 0.00 56 1012.9
20260506200519 53 358 0.0 3.0 0.00 0.00 0.00 53 1012.9
20260506200239 53 58 0.0 3.0 0.00 0.00 0.00 54 1012.8
20260506195508 53 14 1.0 3.0 0.00 0.00 0.00 55 1012.8
20260506195000 54 158 1.0 3.0 0.00 0.00 0.00 55 1012.7
20260506194453 54 218 0.0 3.0 0.00 0.00 0.00 57 1012.7
20260506193947 54 231 1.0 5.0 0.00 0.00 0.00 58 1012.6
20260506193445 54 32 1.0 5.0 0.00 0.00 0.00 59 1012.6
20260506192938 54 35 0.0 3.0 0.00 0.00 0.00 59 1012.5
20260506192433 54 33 1.0 3.0 0.00 0.00 0.00 60 1012.4
20260506191928 54 31 0.0 3.0 0.00 0.00 0.00 60 1012.4
20260506191429 55 19 0.0 5.0 0.00 0.00 0.00 61 1012.2
20260506190928 55 295 1.0 10.0 0.00 0.00 0.00 61 1012.1
20260506190429 55 169 1.0 10.0 0.00 0.00 0.00 60 1012.0
20260506185928 55 243 1.0 7.0 0.00 0.00 0.00 60 1012.0
20260506185428 55 114 1.0 7.0 0.00 0.00 0.00 60 1011.9
20260506184929 55 109 1.0 5.0 0.00 0.00 0.00 60 1011.9
20260506184425 55 54 1.0 5.0 0.00 0.00 0.00 60 1011.8
20260506184156 56 37 1.0 5.0 0.00 0.00 0.00 60 1011.8
20260506183654 56 260 1.0 4.0 0.00 0.00 0.00 60 1011.8
20260506183144 56 124 1.0 7.0 0.00 0.00 0.00 60 1011.7
20260506182429 56 103 2.0 10.0 0.00 0.00 0.00 59 1011.6
20260506181927 56 188 2.0 10.0 0.00 0.00 0.00 59 1011.6
20260506181426 57 68 1.0 9.0 0.00 0.00 0.00 59 1011.6
20260506180927 57 51 2.0 7.0 0.00 0.00 0.00 59 1011.5
20260506180655 57 127 2.0 7.0 0.00 0.00 0.00 59 1011.5